Change the Weather History Date:

Saturday, January 12, 2013

  Actual Average Record
Temperature  
Mean Temperature 72 °F -  
Max Temperature 76 °F 51 °F 76 °F (2013)
Min Temperature 68 °F 33 °F 17 °F (1997)
Cooling Degree Days 7    
Growing Degree Days 22 (Base 50)    
Moisture  
Dew Point 66 °F    
Average Humidity 87    
Maximum Humidity 100    
Minimum Humidity 67    
Precipitation  
Precipitation 0.01 in - - ()
Sea Level Pressure  
Sea Level Pressure 30.00 in    
Wind  
Wind Speed 11 mph (South)    
Max Wind Speed 18 mph    
Max Gust Speed 26 mph    
Visibility 10 miles    
Events Rain    
Averages and records for this station are not official NWS values.
T = Trace of Precipitation, MM = Missing Value Source: NWS Daily Summary

Daily Weather History Graph

Daily Weather History Graph

Search for Another Location

Airport or City:

Trip Planner

Search our weather history database for the weather conditions in past years. The results will help you decide how hot, cold, wet, or windy it might be!

Date:

Astronomy

Jan. 12, 2013 Rise Set
Actual Time 6:58 AM CST 5:06 PM CST
Civil Twilight 6:31 AM CST 5:33 PM CST
Nautical Twilight 6:00 AM CST 6:03 PM CST
Astronomical Twilight 5:30 AM CST 6:33 PM CST
Moon 7:22 AM CST (1/12) 6:28 PM CST (1/12)
Length of Visible Light 11h 01m
Length of Day
10h 07m
New Moon, 1% of the Moon is Illuminated
Jan 12
New Moon
Jan 18
First Quarter
Jan 26
Full
Feb 3
Last Quarter
Feb 10
New

Hourly Weather History & Observations

Time (CST) Temp. Dew Point Humidity Pressure Visibility Wind Dir Wind Speed Gust Speed Precip Events Conditions
12:55 AM 68.0 °F 67.1 °F 97% 30.04 in 10.0 mi South 8.1 mph - N/A   Overcast
1:08 AM 68.0 °F 68.0 °F 100% 30.04 in 10.0 mi South 8.1 mph - N/A   Overcast
1:41 AM 68.0 °F 68.0 °F 100% 30.04 in 10.0 mi South 11.5 mph - N/A   Overcast
1:55 AM 68.4 °F 67.3 °F 96% 30.03 in 10.0 mi South 11.5 mph - N/A   Overcast
2:55 AM 68.4 °F 67.3 °F 96% 30.01 in 10.0 mi South 10.4 mph - N/A   Overcast
3:36 AM 68.0 °F 68.0 °F 100% 30.00 in 10.0 mi South 13.8 mph - N/A Rain Light Rain
3:40 AM 68.0 °F 68.0 °F 100% 30.00 in 9.0 mi South 12.7 mph - N/A   Overcast
3:42 AM 68.0 °F 68.0 °F 100% 30.00 in 9.0 mi South 11.5 mph - N/A Rain Light Rain
3:46 AM 68.0 °F 68.0 °F 100% 30.00 in 9.0 mi South 13.8 mph - N/A   Mostly Cloudy
3:55 AM 68.2 °F 67.6 °F 98% 30.00 in 8.0 mi South 10.4 mph - 0.01 in   Overcast
3:59 AM 68.0 °F 68.0 °F 100% 30.01 in 7.0 mi South 11.5 mph - N/A   Overcast
4:01 AM 68.0 °F 68.0 °F 100% 30.00 in 7.0 mi South 12.7 mph - N/A Rain Light Rain
4:02 AM 68.0 °F 68.0 °F 100% 30.00 in 7.0 mi South 11.5 mph - N/A Rain Light Rain
4:11 AM 68.0 °F 68.0 °F 100% 30.00 in 10.0 mi South 11.5 mph - N/A   Overcast
4:27 AM 68.0 °F 68.0 °F 100% 29.99 in 10.0 mi South 13.8 mph - N/A   Overcast
4:41 AM 68.0 °F 68.0 °F 100% 29.99 in 10.0 mi South 12.7 mph 24.2 mph N/A   Overcast
4:42 AM 68.0 °F 68.0 °F 100% 29.99 in 10.0 mi South 12.7 mph 24.2 mph N/A   Overcast
4:48 AM 68.0 °F 68.0 °F 100% 29.99 in 10.0 mi South 11.5 mph 24.2 mph N/A   Overcast
4:50 AM 68.0 °F 68.0 °F 100% 29.99 in 10.0 mi South 12.7 mph - N/A   Overcast
4:55 AM 68.5 °F 68.5 °F 100% 30.00 in 10.0 mi South 11.5 mph - 0.00 in   Overcast
5:01 AM 68.0 °F 68.0 °F 100% 30.00 in 10.0 mi South 13.8 mph 20.7 mph N/A   Overcast
5:31 AM 68.0 °F 68.0 °F 100% 30.00 in 10.0 mi South 11.5 mph - N/A   Mostly Cloudy
5:55 AM 68.7 °F 67.8 °F 97% 30.01 in 10.0 mi South 10.4 mph - N/A   Mostly Cloudy
6:12 AM 69.8 °F 68.0 °F 94% 30.02 in 10.0 mi South 12.7 mph - N/A   Mostly Cloudy
6:25 AM 69.8 °F 68.0 °F 94% 30.02 in 10.0 mi South 11.5 mph - N/A   Scattered Clouds
6:26 AM 69.8 °F 68.0 °F 94% 30.02 in 10.0 mi South 10.4 mph - N/A   Mostly Cloudy
6:28 AM 69.8 °F 68.0 °F 94% 30.02 in 10.0 mi South 10.4 mph - N/A   Mostly Cloudy
6:37 AM 69.8 °F 68.0 °F 94% 30.03 in 10.0 mi South 12.7 mph - N/A   Mostly Cloudy
6:39 AM 69.8 °F 68.0 °F 94% 30.03 in 10.0 mi South 11.5 mph - N/A   Scattered Clouds
6:47 AM 68.0 °F 68.0 °F 100% 30.02 in 10.0 mi South 12.7 mph - N/A   Mostly Cloudy
6:50 AM 68.0 °F 68.0 °F 100% 30.03 in 10.0 mi South 11.5 mph - N/A   Mostly Cloudy
6:55 AM 68.7 °F 67.3 °F 95% 30.03 in 10.0 mi South 11.5 mph - N/A   Mostly Cloudy
6:57 AM 68.0 °F 68.0 °F 100% 30.03 in 10.0 mi South 8.1 mph - N/A   Scattered Clouds
7:05 AM 68.0 °F 68.0 °F 100% 30.03 in 10.0 mi South 10.4 mph - N/A   Scattered Clouds
7:27 AM 68.0 °F 66.2 °F 94% 30.04 in 10.0 mi South 11.5 mph - N/A   Scattered Clouds
7:30 AM 68.0 °F 66.2 °F 94% 30.04 in 10.0 mi South 9.2 mph - N/A   Mostly Cloudy
7:32 AM 68.0 °F 66.2 °F 94% 30.04 in 10.0 mi South 12.7 mph - N/A   Scattered Clouds
7:33 AM 68.0 °F 66.2 °F 94% 30.04 in 10.0 mi South 11.5 mph - N/A   Mostly Cloudy
7:40 AM 68.0 °F 66.2 °F 94% 30.04 in 10.0 mi South 12.7 mph - N/A   Mostly Cloudy
7:55 AM 68.5 °F 66.6 °F 93% 30.04 in 10.0 mi South 9.2 mph - N/A   Mostly Cloudy
8:23 AM 69.8 °F 66.2 °F 88% 30.05 in 10.0 mi South 11.5 mph - N/A   Mostly Cloudy
8:26 AM 69.8 °F 66.2 °F 88% 30.05 in 10.0 mi South 9.2 mph - N/A   Mostly Cloudy
8:27 AM 69.8 °F 66.2 °F 88% 30.05 in 10.0 mi South 9.2 mph - N/A   Mostly Cloudy
8:28 AM 69.8 °F 66.2 °F 88% 30.05 in 10.0 mi South 11.5 mph - N/A   Scattered Clouds
8:32 AM 69.8 °F 66.2 °F 88% 30.05 in 10.0 mi South 12.7 mph - N/A   Mostly Cloudy
8:35 AM 69.8 °F 66.2 °F 88% 30.05 in 10.0 mi South 10.4 mph - N/A   Scattered Clouds
8:36 AM 69.8 °F 66.2 °F 88% 30.05 in 10.0 mi South 11.5 mph - N/A   Mostly Cloudy
8:49 AM 69.8 °F 66.2 °F 88% 30.06 in 10.0 mi South 15.0 mph - N/A   Mostly Cloudy
8:55 AM 69.3 °F 65.7 °F 88% 30.06 in 10.0 mi South 12.7 mph - N/A   Mostly Cloudy
9:13 AM 69.8 °F 66.2 °F 88% 30.06 in 10.0 mi South 10.4 mph - N/A   Mostly Cloudy
9:27 AM 69.8 °F 66.2 °F 88% 30.06 in 10.0 mi South 12.7 mph 17.3 mph N/A   Mostly Cloudy
9:34 AM 71.6 °F 66.2 °F 83% 30.06 in 10.0 mi South 10.4 mph - N/A   Mostly Cloudy
9:38 AM 71.6 °F 66.2 °F 83% 30.06 in 10.0 mi South 12.7 mph - N/A   Mostly Cloudy
9:55 AM 70.9 °F 66.0 °F 85% 30.06 in 10.0 mi South 9.2 mph - N/A   Mostly Cloudy
10:26 AM 71.6 °F 66.2 °F 83% 30.05 in 10.0 mi South 9.2 mph - N/A   Mostly Cloudy
10:27 AM 71.6 °F 66.2 °F 83% 30.05 in 10.0 mi SSW 8.1 mph - N/A   Mostly Cloudy
10:28 AM 71.6 °F 66.2 °F 83% 30.05 in 10.0 mi SSW 8.1 mph - N/A   Mostly Cloudy
10:33 AM 71.6 °F 66.2 °F 83% 30.05 in 10.0 mi SSW 10.4 mph - N/A   Mostly Cloudy
10:47 AM 71.6 °F 66.2 °F 83% 30.05 in 10.0 mi SSW 12.7 mph - N/A   Mostly Cloudy
10:55 AM 71.6 °F 65.5 °F 81% 30.05 in 10.0 mi SSW 10.4 mph - N/A   Mostly Cloudy
11:00 AM 71.6 °F 66.2 °F 83% 30.04 in 10.0 mi SSW 9.2 mph - N/A   Mostly Cloudy
11:07 AM 71.6 °F 66.2 °F 83% 30.04 in 10.0 mi SSW 6.9 mph - N/A   Mostly Cloudy
11:10 AM 71.6 °F 66.2 °F 83% 30.03 in 10.0 mi South 8.1 mph - N/A   Mostly Cloudy
11:12 AM 71.6 °F 66.2 °F 83% 30.03 in 10.0 mi South 11.5 mph - N/A   Mostly Cloudy
11:13 AM 71.6 °F 66.2 °F 83% 30.03 in 10.0 mi South 12.7 mph - N/A   Mostly Cloudy
11:16 AM 71.6 °F 66.2 °F 83% 30.03 in 10.0 mi SSW 9.2 mph - N/A   Mostly Cloudy
11:24 AM 71.6 °F 66.2 °F 83% 30.03 in 10.0 mi SSW 8.1 mph - N/A   Mostly Cloudy
11:27 AM 71.6 °F 66.2 °F 83% 30.03 in 10.0 mi SSW 8.1 mph - N/A   Mostly Cloudy
11:28 AM 71.6 °F 66.2 °F 83% 30.03 in 10.0 mi SSW 6.9 mph - N/A   Mostly Cloudy
11:29 AM 71.6 °F 66.2 °F 83% 30.03 in 10.0 mi SSW 5.8 mph - N/A   Mostly Cloudy
11:31 AM 71.6 °F 66.2 °F 83% 30.03 in 10.0 mi SSW 6.9 mph - N/A   Mostly Cloudy
11:34 AM 71.6 °F 66.2 °F 83% 30.02 in 10.0 mi SSW 5.8 mph - N/A   Mostly Cloudy
11:42 AM 71.6 °F 66.2 °F 83% 30.02 in 10.0 mi SSW 8.1 mph - N/A   Mostly Cloudy
11:55 AM 72.7 °F 66.0 °F 80% 30.01 in 10.0 mi South 10.4 mph - N/A   Mostly Cloudy
11:59 AM 73.4 °F 66.2 °F 78% 30.01 in 10.0 mi South 10.4 mph - N/A   Scattered Clouds
12:31 PM 73.4 °F 66.2 °F 78% 29.99 in 10.0 mi South 10.4 mph - N/A   Mostly Cloudy
12:34 PM 73.4 °F 66.2 °F 78% 29.99 in 10.0 mi South 12.7 mph 19.6 mph N/A   Scattered Clouds
12:55 PM 74.3 °F 65.3 °F 73% 29.97 in 10.0 mi SSW 12.7 mph 18.4 mph N/A   Scattered Clouds
12:57 PM 73.4 °F 64.4 °F 73% 29.97 in 10.0 mi South 16.1 mph 21.9 mph N/A   Mostly Cloudy
1:40 PM 75.2 °F 64.4 °F 69% 29.96 in 10.0 mi SSW 13.8 mph - N/A   Scattered Clouds
1:55 PM 76.1 °F 64.6 °F 67% 29.95 in 10.0 mi South 13.8 mph 20.7 mph N/A   Partly Cloudy
2:11 PM 75.2 °F 64.4 °F 69% 29.95 in 10.0 mi South 12.7 mph - N/A   Mostly Cloudy
2:19 PM 75.2 °F 64.4 °F 69% 29.95 in 10.0 mi South 13.8 mph - N/A   Scattered Clouds
2:24 PM 75.2 °F 64.4 °F 69% 29.95 in 10.0 mi South 12.7 mph - N/A   Mostly Cloudy
2:55 PM 74.8 °F 65.1 °F 72% 29.95 in 10.0 mi South 13.8 mph 21.9 mph N/A   Mostly Cloudy
3:22 PM 75.2 °F 66.2 °F 73% 29.94 in 10.0 mi SSE 13.8 mph - N/A   Scattered Clouds
3:55 PM 73.4 °F 65.3 °F 76% 29.93 in 10.0 mi South 18.4 mph 23.0 mph N/A   Partly Cloudy
4:37 PM 71.6 °F 64.4 °F 78% 29.92 in 10.0 mi South 11.5 mph - N/A   Mostly Cloudy
4:55 PM 72.1 °F 64.8 °F 78% 29.94 in 10.0 mi South 10.4 mph - N/A   Mostly Cloudy
5:53 PM 71.6 °F 64.4 °F 78% 29.93 in 10.0 mi SSE 10.4 mph - N/A   Scattered Clouds
5:55 PM 71.1 °F 64.6 °F 80% 29.93 in 10.0 mi SSE 11.5 mph - N/A   Scattered Clouds
6:55 PM 70.2 °F 64.4 °F 82% 29.91 in 10.0 mi SSE 10.4 mph - N/A   Partly Cloudy
7:55 PM 70.5 °F 63.9 °F 79% 29.91 in 10.0 mi South 15.0 mph 23.0 mph N/A   Clear
8:55 PM 70.0 °F 62.8 °F 78% 29.90 in 10.0 mi South 15.0 mph - N/A   Mostly Cloudy
9:34 PM 69.8 °F 62.6 °F 78% 29.90 in 10.0 mi South 15.0 mph 21.9 mph N/A   Mostly Cloudy
9:55 PM 69.6 °F 62.2 °F 77% 29.91 in 10.0 mi South 15.0 mph - N/A   Overcast
9:56 PM 69.8 °F 62.6 °F 78% 29.91 in 10.0 mi South 15.0 mph - N/A   Overcast
10:35 PM 69.8 °F 62.6 °F 78% 29.90 in 10.0 mi South 18.4 mph 24.2 mph N/A   Mostly Cloudy
10:42 PM 69.8 °F 62.6 °F 78% 29.91 in 10.0 mi South 16.1 mph 24.2 mph N/A   Mostly Cloudy
10:55 PM 69.3 °F 63.0 °F 80% 29.91 in 10.0 mi South 15.0 mph - N/A   Mostly Cloudy
10:59 PM 69.8 °F 62.6 °F 78% 29.91 in 10.0 mi South 17.3 mph 23.0 mph N/A   Mostly Cloudy
11:01 PM 69.8 °F 62.6 °F 78% 29.91 in 10.0 mi South 18.4 mph 23.0 mph N/A   Mostly Cloudy
11:15 PM 69.8 °F 62.6 °F 78% 29.90 in 10.0 mi South 16.1 mph 26.5 mph N/A   Mostly Cloudy
11:16 PM 69.8 °F 62.6 °F 78% 29.90 in 10.0 mi South 16.1 mph 26.5 mph N/A   Mostly Cloudy
11:34 PM 69.8 °F 62.6 °F 78% 29.89 in 10.0 mi South 15.0 mph 25.3 mph N/A   Mostly Cloudy
11:39 PM 69.8 °F 62.6 °F 78% 29.89 in 10.0 mi South 15.0 mph 25.3 mph N/A   Mostly Cloudy
11:40 PM 69.8 °F 62.6 °F 78% 29.89 in 10.0 mi South 13.8 mph 25.3 mph N/A   Mostly Cloudy
11:43 PM 69.8 °F 62.6 °F 78% 29.89 in 10.0 mi South 15.0 mph - N/A   Mostly Cloudy
11:55 PM 68.9 °F 63.3 °F 82% 29.88 in 10.0 mi South 16.1 mph 21.9 mph N/A   Mostly Cloudy